Accueil
METAR-TAF:

METAR-TAF

Aéroports :

Virginia Highlands Airport

Abingdon, Virginie, États-Unis

latitude: 36-41N, longitude: 082-02W, altitude: 631 m

Observation

Le bulletin a été fait il y a 15 heures et 39 minutes, à 20:55 UTC
Vent 8 kt de ouest/nord-ouest
Température 18°C
Humidité 11%
Pression 1016 hPa
Visibilité: 16.1 km
Ciel clair

METAR: KVJI 032055Z AUTO 29008KT 10SM CLR 18/M13 A3000 RMK AO2 6//// T01801129

Heure: 08:34 (12:34 UTC)


TAF: absent

Observations et prévisions météorologiques de plus de 4000 aéroports (messages METAR et TAF).

Les stations disponibles sont représentées par des disques jaunes et rouges sur la carte.

Passer la souris dessus pour voir le nom de la station.

Cliquer dessus pour voir les observations et prévisions météorologiques.

Pour changer de carte: cliquez sur les boutons verts avec une croix noire pour zoomer, sur le bouton vert avec un tiret pour effectuer un zoom arrière, ou sur les flèches vertes pour les cartes adjacentes.


METAR-TAF: